Home / Local Weather & Traffic / California / Grapevine Past Weather

Grapevine, CA Past Weather

Last 30 Days

 
High: 54ºf @12:13 AM    Low: 39ºf @9:13 PM     Approx. Precipitation / Rain Total: in.
Time (PDT)Temp. (ºf)Humidity (%)Dew Point (ºf)Barometer (inHG)Wind Speed (mph)Wind DirectionWind Gust (mph)1hr. Precip / Rain Total (in.)Snow Depth
10:13 PM409538.69-8.69n16.51--
9:13 PM399738.22-8.69n13.9--
8:13 PM4010040-7.82n14.77--
7:13 PM419539.68-8.69n13.9--
6:13 PM429239.85-5.21-13.9--
4:13 PM4210042-9.56n16.51--
3:13 PM4210042-7.82-19.12--
2:13 PM4210042-8.69n13.9--
12:13 PM4010040-7.82n12.17--
9:13 AM4410044-7.82n17.38--
8:13 AM4410044-5.21n13.9--
7:13 AM4410044-7.82n14.77--
6:13 AM4410044-8.69n14.77--
5:13 AM4410044-10.43n14.77--
4:13 AM4410044-9.56n13.03--
3:13 AM4510045-8.69nne14.77--
2:13 AM4410044-7.82nne19.12--
1:13 AM4710047-10.43n19.12--
12:13 AM547245.18-7.82nne12.17--
High: 66ºf @3:13 PM    Low: 53ºf @7:13 AM     Approx. Precipitation / Rain Total: in.
Time (PDT)Temp. (ºf)Humidity (%)Dew Point (ºf)Barometer (inHG)Wind Speed (mph)Wind DirectionWind Gust (mph)1hr. Precip / Rain Total (in.)Snow Depth
11:13 PM567648.54-7.82n13.03--
10:13 PM556643.85-6.08nne9.56--
9:13 PM565540.06-4.34nne10.43--
7:13 PM574938.03-2.61n9.56--
6:13 PM583631.2-5.21n10.43--
5:13 PM623634.74-6.08n12.17--
4:13 PM642830.24-6.08nnw12.17--
3:13 PM662831.96-6.08nnw13.03--
2:13 PM653335.19-6.95-12.17--
1:13 PM623634.74-6.95n13.9--
12:13 PM622828.52-8.69n13.03--
11:13 AM622929.38-6.95n10.43--
9:13 AM564635.51-7.82n10.43--
8:13 AM543426.27-6.95n9.56--
7:13 AM533928.71-4.34n6.08--
5:13 AM534532.23-5.21n7.82--
4:13 AM543929.61-5.21n7.82--
3:13 AM544130.84-5.21n8.69--
2:13 AM553829.86-6.95n8.69--
1:13 AM563730.1-6.08n8.69--
High: 72ºf @1:13 PM    Low: 57ºf @2:13 AM     Approx. Precipitation / Rain Total: in.
Time (PDT)Temp. (ºf)Humidity (%)Dew Point (ºf)Barometer (inHG)Wind Speed (mph)Wind DirectionWind Gust (mph)1hr. Precip / Rain Total (in.)Snow Depth
11:13 PM583429.79-4.34n6.95--
10:13 PM593027.61-4.34n6.08--
9:13 PM592926.79-5.21-6.08--
8:13 PM593732.77-3.48nnw6.08--
6:13 PM613533.15-4.34n6.95--
5:13 PM633736.32-6.08nne9.56--
4:13 PM653435.94-5.21nne10.43--
3:13 PM643031.94-6.95nne9.56--
1:13 PM721927.48-4.34nne8.69--
12:13 PM702330.49-4.34n7.82--
11:13 AM7098.6-5.21n8.69--
9:13 AM661517.04-4.34n7.82--
8:13 AM631818.84-4.34n6.08--
6:13 AM593229.19-4.34n6.95--
5:13 AM583832.54-4.34n7.82--
4:13 AM573730.99-6.95n8.69--
3:13 AM583933.18-5.21n7.82--
2:13 AM573630.31-5.21n8.69--
1:13 AM583026.75-6.95n8.69--
12:13 AM593833.43-6.95n8.69--
High: 79ºf @11:13 AM    Low: 60ºf @10:13 PM     Approx. Precipitation / Rain Total: in.
Time (PDT)Temp. (ºf)Humidity (%)Dew Point (ºf)Barometer (inHG)Wind Speed (mph)Wind DirectionWind Gust (mph)1hr. Precip / Rain Total (in.)Snow Depth
11:13 PM603632.97-4.34n7.82--
10:13 PM603733.65-6.08n7.82--
9:13 PM613734.54-4.34n7.82--
8:13 PM613533.15-6.08n8.69--
5:13 PM662831.96-7.82n10.43--
3:13 PM731319.26-6.95n10.43--
1:13 PM78811.94-5.21n7.82--
11:13 AM7952.34-4.34nw9.56--
10:13 AM75912.36-3.48wnw8.69--
9:13 AM751116.94-3.48nnw6.08--
8:13 AM691112.32-4.34nne6.95--
7:13 AM68109.42-5.21n6.95--
6:13 AM691010.18-3.48n6.95--
4:13 AM691010.18-3.48n5.21--
3:13 AM68109.42-3.48nnw5.21--
2:13 AM68109.42-2.61nnw4.34--
1:13 AM6997.84-3.48nw5.21--
12:13 AM68109.42-3.48wnw5.21--
High: 78ºf @4:13 PM    Low: 61ºf @1:13 AM     Approx. Precipitation / Rain Total: in.
Time (PDT)Temp. (ºf)Humidity (%)Dew Point (ºf)Barometer (inHG)Wind Speed (mph)Wind DirectionWind Gust (mph)1hr. Precip / Rain Total (in.)Snow Depth
11:13 PM6897.09-3.48s6.95--
10:13 PM6695.58-1.74sse6.95--
9:13 PM6897.09-5.21sse6.95--
7:13 PM68109.42-4.34sse6.08--
6:13 PM711011.7-3.48sse5.21--
5:13 PM77913.86-1.74se6.08--
4:13 PM781017.03-4.34sse9.56--
3:13 PM771016.27-7.82sse11.3--
2:13 PM77913.86-6.95s13.03--
1:13 PM7778.23-10.43s16.51--
12:13 PM7589.72-9.56s14.77--
11:13 AM7388.24-9.56s13.9--
10:13 AM7186.75-10.43sse16.51--
8:13 AM63105.59-7.82s10.43--
7:13 AM6292.55-7.82s10.43--
6:13 AM6191.8-7.82sse11.3--
5:13 AM6191.8-8.69sse13.03--
4:13 AM6292.55-10.43sse14.77--
3:13 AM6292.55-10.43sse13.9--
2:13 AM6191.8-9.56sse13.03--
1:13 AM6191.8-10.43sse13.9--
High: 70ºf @4:13 PM    Low: 55ºf @5:13 AM     Approx. Precipitation / Rain Total: in.
Time (PDT)Temp. (ºf)Humidity (%)Dew Point (ºf)Barometer (inHG)Wind Speed (mph)Wind DirectionWind Gust (mph)1hr. Precip / Rain Total (in.)Snow Depth
11:13 PM6380.79-13.03sse17.38--
10:13 PM6380.79-13.03sse17.38--
7:13 PM6393.31-13.03s17.38--
6:13 PM6582.28-14.77s20.86--
5:13 PM6972.37-16.51s24.33--
4:13 PM7073.11-17.38s26.94--
3:13 PM7086.01-18.25sse33.89--
2:13 PM6997.84-22.59s33.89--
1:13 PM67108.65-24.33s34.76--
12:13 PM65119.23-26.07s38.23--
11:13 AM63129.61-26.07s35.63--
10:13 AM60139.04-26.07s33.02--
9:13 AM59149.89-23.46sse30.41--
8:13 AM56159.03-21.72sse31.28--
7:13 AM55169.65-23.46sse33.89--
6:13 AM55169.65-23.46sse36.5--
5:13 AM55169.65-26.94sse37.37--
4:13 AM551711.01-26.94sse38.23--
3:13 AM551711.01-25.2sse32.15--
2:13 AM561610.46-25.2sse30.41--
1:13 AM571611.27-23.46se31.28--
12:13 AM561610.46-16.51sse24.33--
High: 69ºf @3:13 PM    Low: 47ºf @2:13 AM     Approx. Precipitation / Rain Total: in.
Time (PDT)Temp. (ºf)Humidity (%)Dew Point (ºf)Barometer (inHG)Wind Speed (mph)Wind DirectionWind Gust (mph)1hr. Precip / Rain Total (in.)Snow Depth
11:13 PM57148.3-16.51se23.46--
9:13 PM59126.48-12.17sse20.86--
8:13 PM63117.68-16.51se25.2--
7:13 PM64118.46-13.9se22.59--
6:13 PM66107.89-13.03se23.46--
3:13 PM691010.18-20.86sse31.28--
2:13 PM691010.18-19.99sse30.41--
1:13 PM681213.51-19.12s30.41--
10:13 AM651312.97-15.64sse20.86--
9:13 AM62128.83-13.9sse17.38--
8:13 AM598-2.21-6.95sse10.43--
7:13 AM569-2-1.74w7.82--
6:13 AM53168.04-6.08nw8.69--
5:13 AM54122.57-6.08nw6.95--
2:13 AM473923.34-5.21n7.82--
1:13 AM483320.29-4.34nnw8.69--
12:13 AM484024.84-4.34nnw7.82--
High: 60ºf @12:13 PM    Low: 46ºf @5:13 AM     Approx. Precipitation / Rain Total: in.
Time (PDT)Temp. (ºf)Humidity (%)Dew Point (ºf)Barometer (inHG)Wind Speed (mph)Wind DirectionWind Gust (mph)1hr. Precip / Rain Total (in.)Snow Depth
11:13 PM474828.34-5.21n9.56--
10:13 PM484829.26-6.08n10.43--
9:13 PM494428.05-6.08n9.56--
8:13 PM484829.26-6.95n9.56--
7:13 PM474928.84-6.95n9.56--
6:13 PM494528.59-6.95nne10.43--
5:13 PM533828.08-6.95n8.69--
4:13 PM573630.31-6.08nnw10.43--
3:13 PM583530.51-6.08nnw11.3--
2:13 PM573428.91-6.08n10.43--
1:13 PM563226.57-6.08n8.69--
12:13 PM602322.1-5.21nnw7.82--
10:13 AM592624.17-2.61sw5.21--
9:13 AM563830.76-1.74wsw7.82--
8:13 AM484527.68-6.95n7.82--
7:13 AM474828.34-2.61nnw7.82--
6:13 AM464927.92-3.48nnw7.82--
5:13 AM464827.42-5.21n6.08--
4:13 AM464927.92-2.61nnw4.34--
2:13 AM474526.77-3.48nnw6.08--
1:13 AM474727.83-4.34nnw7.82--
12:13 AM474526.77-5.21nnw7.82--
High: 58ºf @12:13 PM    Low: 41ºf @7:13 AM     Approx. Precipitation / Rain Total: in.
Time (PDT)Temp. (ºf)Humidity (%)Dew Point (ºf)Barometer (inHG)Wind Speed (mph)Wind DirectionWind Gust (mph)1hr. Precip / Rain Total (in.)Snow Depth
11:13 PM474426.23-6.08nnw8.69--
10:13 PM463519.9-6.08nnw8.69--
9:13 PM453519.01-5.21nnw8.69--
6:13 PM464324.77-6.95nne9.56--
5:13 PM493925.13-6.95n8.69--
3:13 PM553225.69-5.21nne7.82--
2:13 PM573025.88-5.21n7.82--
1:13 PM572925.07-3.48nne7.82--
12:13 PM582825.09-3.48sse7.82--
8:13 AM433919.76-6.95n12.17--
7:13 AM414018.55-7.82n11.3--
5:13 AM433517.24-8.69n12.17--
4:13 AM433819.15-8.69n12.17--
3:13 AM443719.42-6.95n11.3--
2:13 AM454323.86-6.08n10.43--
1:13 AM454927-6.95n11.3--
12:13 AM466032.9-7.82n12.17--
High: 69ºf @11:13 AM    Low: 47ºf @11:13 PM     Approx. Precipitation / Rain Total: in.
Time (PDT)Temp. (ºf)Humidity (%)Dew Point (ºf)Barometer (inHG)Wind Speed (mph)Wind DirectionWind Gust (mph)1hr. Precip / Rain Total (in.)Snow Depth
11:13 PM476535.85-6.95n10.43--
10:13 PM496437.36-5.21n12.17--
9:13 PM505333.55-7.82n13.9--
8:13 PM534632.78-5.21n8.69--
7:13 PM544533.14-6.08n7.82--
6:13 PM554232.33-4.34n9.56--
4:13 PM603632.97-6.95nne9.56--
3:13 PM623332.57-6.08n9.56--
2:13 PM613432.43-7.82nne10.43--
1:13 PM642022.13-6.95nne9.56--
12:13 PM682530.86-3.48ese7.82--
11:13 AM692026.26-4.34s9.56--
10:13 AM661922.56-4.34s7.82--
9:13 AM642022.13-3.48s6.08--
7:13 AM562823.36-0.87nw3.48--
6:13 AM562520.69-2.61nnw4.34--
5:13 AM562419.73-3.48n6.08--
3:13 AM572117.47-3.48n6.08--
2:13 AM582118.3-4.34nw7.82--
1:13 AM582421.42-4.34nnw8.69--
12:13 AM582320.42-1.74se15.64--
High: 68ºf @4:13 PM    Low: 51ºf @6:13 AM     Approx. Precipitation / Rain Total: in.
Time (PDT)Temp. (ºf)Humidity (%)Dew Point (ºf)Barometer (inHG)Wind Speed (mph)Wind DirectionWind Gust (mph)1hr. Precip / Rain Total (in.)Snow Depth
11:13 PM602322.1-13.03s15.64--
9:13 PM591815.57-11.3sse15.64--
8:13 PM601613.7-11.3sse15.64--
7:13 PM601512.24-12.17sse15.64--
6:13 PM621310.61-9.56sse16.51--
5:13 PM661211.95-13.9s19.12--
4:13 PM681111.55-14.77s23.46--
3:13 PM681111.55-16.51s26.07--
2:13 PM671110.77-18.25s26.07--
1:13 PM65119.23-17.38sse27.81--
12:13 PM63117.68-18.25s33.02--
11:13 AM61128.05-20.86s32.15--
10:13 AM58137.46-23.46sse30.41--
9:13 AM56147.5-19.99sse28.68--
8:13 AM53156.62-19.12sse26.07--
6:13 AM51155.01-18.25sse24.33--
5:13 AM51155.01-19.99sse28.68--
4:13 AM52144.31-20.86sse32.15--
2:13 AM53156.62-22.59sse29.55--
1:13 AM53156.62-19.99sse27.81--
12:13 AM53145.11-21.72sse34.76--
High: 61ºf @2:13 PM    Low: 47ºf @7:13 AM     Approx. Precipitation / Rain Total: in.
Time (PDT)Temp. (ºf)Humidity (%)Dew Point (ºf)Barometer (inHG)Wind Speed (mph)Wind DirectionWind Gust (mph)1hr. Precip / Rain Total (in.)Snow Depth
10:13 PM54145.91-24.33sse36.5--
8:13 PM55135.09-23.46sse32.15--
6:13 PM58113.81-26.07sse35.63--
4:13 PM61116.14-26.07sse37.37--
3:13 PM61128.05-29.55sse41.71--
2:13 PM61128.05-29.55sse46.06--
1:13 PM60127.27-32.15sse46.06--
12:13 PM59138.25-27.81sse45.19--
11:13 AM56147.5-31.28sse45.19--
10:13 AM53179.38-32.15sse46.06--
9:13 AM50199.39-31.28sse44.32--
7:13 AM472513.03-28.68sse40.84--
6:13 AM482614.77-28.68sse37.37--
5:13 AM502919.01-26.07sse34.76--
4:13 AM523021.54-25.2sse32.15--
3:13 AM543728.32-20.86sse28.68--
1:13 AM506036.67-6.95sse9.56--
12:13 AM506137.09-5.21n13.03--
High: 68ºf @11:13 AM    Low: 52ºf @11:13 PM     Approx. Precipitation / Rain Total: in.
Time (PDT)Temp. (ºf)Humidity (%)Dew Point (ºf)Barometer (inHG)Wind Speed (mph)Wind DirectionWind Gust (mph)1hr. Precip / Rain Total (in.)Snow Depth
11:13 PM525837.69-8.69n14.77--
10:13 PM545839.56-6.95n13.9--
7:13 PM584637.34-9.56n13.03--
6:13 PM604337.44-6.08n9.56--
5:13 PM634038.3-6.08n10.43--
4:13 PM653939.43-6.08n13.9--
2:13 PM653234.42-9.56n14.77--
1:13 PM652931.97-8.69n14.77--
11:13 AM682530.86-6.08n11.3--
9:13 AM642729.35-6.08n9.56--
8:13 AM612928.52-6.08nne7.82--
7:13 AM592220.22-6.08n7.82--
6:13 AM602221.05-5.21n7.82--
5:13 AM602423.11-6.08n9.56--
2:13 AM602725.93-6.95n11.3--
1:13 AM602423.11-6.95n10.43--
12:13 AM602725.93-6.08n9.56--
High: 76ºf @11:13 AM    Low: 61ºf @11:13 PM     Approx. Precipitation / Rain Total: in.
Time (PDT)Temp. (ºf)Humidity (%)Dew Point (ºf)Barometer (inHG)Wind Speed (mph)Wind DirectionWind Gust (mph)1hr. Precip / Rain Total (in.)Snow Depth
11:13 PM611614.5-6.95nne8.69--
10:13 PM641413.86-4.34n6.95--
9:13 PM641515.44-5.21n7.82--
8:13 PM641515.44-4.34n6.08--
6:13 PM681721.57-3.48nnw8.69--
4:13 PM721216.62-5.21n9.56--
3:13 PM731420.99-6.95n9.56--
2:13 PM741421.78-6.08nne8.69--
11:13 AM761321.61-7.82sse11.3--
10:13 AM741421.78-6.95sse8.69--
9:13 AM711419.41-5.21sse7.82--
8:13 AM671314.55-6.95sse11.3--
7:13 AM651312.97-7.82sse13.9--
6:13 AM651312.97-8.69se10.43--
4:13 AM651211.17-7.82se11.3--
2:13 AM651312.97-10.43se12.17--
1:13 AM651312.97-9.56se11.3--
12:13 AM661313.76-9.56se12.17--
High: 74ºf @3:13 PM    Low: 54ºf @6:13 AM     Approx. Precipitation / Rain Total: in.
Time (PDT)Temp. (ºf)Humidity (%)Dew Point (ºf)Barometer (inHG)Wind Speed (mph)Wind DirectionWind Gust (mph)1hr. Precip / Rain Total (in.)Snow Depth
10:13 PM651414.66-6.95se9.56--
9:13 PM651516.24-6.08sse8.69--
8:13 PM651414.66-5.21sse8.69--
7:13 PM671314.55-6.95se12.17--
6:13 PM701316.9-8.69sse15.64--
5:13 PM721318.47-11.3sse17.38--
3:13 PM741218.18-9.56sse23.46--
2:13 PM731115.4-18.25s30.41--
1:13 PM731217.4-15.64s23.46--
12:13 PM701418.62-17.38sse26.07--
11:13 AM671416.24-19.99sse26.07--
9:13 AM641616.92-14.77sse18.25--
8:13 AM611614.5-13.9sse17.38--
7:13 AM59149.89-9.56sse13.9--
6:13 AM54157.42-0.87sse4.34--
5:13 AM553124.93-3.48n6.08--
4:13 AM543224.82-4.34n6.95--
2:13 AM59102.53-3.48nnw6.08--
12:13 AM563125.8-3.48nnw6.08--
High: 65ºf @12:13 PM    Low: 47ºf @5:13 AM     Approx. Precipitation / Rain Total: in.
Time (PDT)Temp. (ºf)Humidity (%)Dew Point (ºf)Barometer (inHG)Wind Speed (mph)Wind DirectionWind Gust (mph)1hr. Precip / Rain Total (in.)Snow Depth
11:13 PM563125.8-3.48nnw5.21--
10:13 PM554131.74-2.61nnw6.08--
9:13 PM534129.94-6.08n7.82--
8:13 PM534129.94-6.08n8.69--
7:13 PM534129.94-6.95n8.69--
5:13 PM583631.2-7.82n12.17--
4:13 PM603330.82-8.69n10.43--
3:13 PM613130.15-6.08nne10.43--
2:13 PM613331.69-6.95n10.43--
1:13 PM622929.38-6.08nne8.69--
12:13 PM652629.28-3.48nne6.08--
11:13 AM612827.67-3.48ne6.08--
10:13 AM603129.28-3.48ne6.08--
8:13 AM515033.02-5.21n7.82--
7:13 AM495031.18-4.34n6.95--
6:13 AM485030.26-4.34n6.08--
5:13 AM474928.84-3.48nnw6.95--
4:13 AM484728.74-4.34nnw7.82--
3:13 AM504529.5-4.34nnw5.21--
2:13 AM494729.66-2.61nnw6.08--
1:13 AM494830.17-4.34n6.08--
12:13 AM494729.66-3.48nnw5.21--
High: 60ºf @12:13 PM    Low: 44ºf @3:13 AM     Approx. Precipitation / Rain Total: in.
Time (PDT)Temp. (ºf)Humidity (%)Dew Point (ºf)Barometer (inHG)Wind Speed (mph)Wind DirectionWind Gust (mph)1hr. Precip / Rain Total (in.)Snow Depth
11:13 PM494327.49-3.48nnw6.08--
10:13 PM504428.95-4.34n5.21--
9:13 PM504428.95-4.34n7.82--
7:13 PM524229.63-5.21n6.95--
6:13 PM534129.94-6.08nne7.82--
4:13 PM573529.62-6.08nne11.3--
3:13 PM573328.19-6.08n9.56--
2:13 PM593027.61-6.08nne9.56--
12:13 PM602625.02-8.69sse13.03--
11:13 AM592119.13-10.43sse13.9--
10:13 AM572420.58-5.21s8.69--
9:13 AM543023.28-2.61ne5.21--
8:13 AM473420.1-4.34nne7.82--
7:13 AM445227.52-4.34n8.69--
6:13 AM445026.57-7.82nne8.69--
5:13 AM445428.44-6.08n7.82--
4:13 AM445227.52-6.95-7.82--
3:13 AM445528.88-5.21n8.69--
12:13 AM445729.76-5.21n8.69--
High: 62ºf @12:13 PM    Low: 46ºf @8:13 PM     Approx. Precipitation / Rain Total: in.
Time (PDT)Temp. (ºf)Humidity (%)Dew Point (ºf)Barometer (inHG)Wind Speed (mph)Wind DirectionWind Gust (mph)1hr. Precip / Rain Total (in.)Snow Depth
8:13 PM465530.75-3.48n7.82--
7:13 PM466233.72-5.21n11.3--
6:13 PM486235.61-6.95n14.77--
5:13 PM516539.65-6.95n13.9--
4:13 PM574535.87-7.82n14.77--
3:13 PM613029.35-6.95n13.9--
1:13 PM613432.43-6.08nnw13.9--
12:13 PM624741.54-6.95ese20.86--
11:13 AM585943.75-15.64sse21.72--
10:13 AM566444-14.77s21.72--
8:13 AM488242.77-10.43sse16.51--
7:13 AM467337.84-10.43sse14.77--
6:13 AM466434.51-7.82sse12.17--
5:13 AM494126.34-4.34sse7.82--
4:13 AM502515.58-5.21se8.69--
2:13 AM502818.2---3.48--
1:13 AM512919.88-2.61nw5.21--
12:13 AM522618.19-3.48nw5.21--
High: 56ºf @4:13 PM    Low: 45ºf @6:13 AM     Approx. Precipitation / Rain Total: in.
Time (PDT)Temp. (ºf)Humidity (%)Dew Point (ºf)Barometer (inHG)Wind Speed (mph)Wind DirectionWind Gust (mph)1hr. Precip / Rain Total (in.)Snow Depth
11:13 PM512718.21-4.34n6.95--
10:13 PM513020.67-6.08n7.82--
8:13 PM504328.39-2.61nnw6.08--
7:13 PM504328.39-4.34-6.95--
6:13 PM524028.44-6.08n10.43--
4:13 PM563830.76-7.82n13.03--
2:13 PM563730.1-6.95n12.17--
1:13 PM553628.54-6.08n11.3--
12:13 PM554131.74-6.08n13.9--
10:13 AM543526.97-6.08n12.17--
9:13 AM523625.88-6.08-9.56--
8:13 AM484125.44-6.08n8.69--
6:13 AM454524.95-7.82n13.9--
5:13 AM474225.11-8.69-12.17--
4:13 AM464123.63-3.48n9.56--
3:13 AM483118.83-4.34nne14.77--
2:13 AM503221.32-8.69n13.9--
1:13 AM513625-6.95n15.64--
12:13 AM523726.54-9.56n18.25--
High: 64ºf @3:13 PM    Low: 50ºf @7:13 AM     Approx. Precipitation / Rain Total: in.
Time (PDT)Temp. (ºf)Humidity (%)Dew Point (ºf)Barometer (inHG)Wind Speed (mph)Wind DirectionWind Gust (mph)1hr. Precip / Rain Total (in.)Snow Depth
10:13 PM543224.82-6.08nne14.77--
9:13 PM544231.43-6.95n13.03--
8:13 PM555036.7-8.69-18.25--
7:13 PM565037.63-8.69n13.9--
6:13 PM594135.33-8.69n16.51--
5:13 PM623634.74-7.82n14.77--
3:13 PM645246.02-6.95nnw13.03--
2:13 PM635747.52-6.95n14.77--
11:13 AM586947.89-9.56n14.77--
10:13 AM587750.83-8.69n14.77--
9:13 AM567949.58-7.82n13.03--
8:13 AM539651.89-6.95n10.43--
7:13 AM5010050-5.21n8.69--
3:13 AM519248.76-5.21n10.43--
2:13 AM528647.94-6.08n9.56--
1:13 AM528246.68-6.08n11.3--
12:13 AM547445.9-7.82n13.9--
High: 65ºf @3:13 PM    Low: 54ºf @7:13 AM     Approx. Precipitation / Rain Total: in.
Time (PDT)Temp. (ºf)Humidity (%)Dew Point (ºf)Barometer (inHG)Wind Speed (mph)Wind DirectionWind Gust (mph)1hr. Precip / Rain Total (in.)Snow Depth
11:13 PM557246.14-8.69n13.03--
10:13 PM567247.1-6.95n11.3--
9:13 PM567347.47-6.95n11.3--
7:13 PM586546.3-6.95n10.43--
6:13 PM615645.19-5.21n9.56--
5:13 PM645145.5-5.21-11.3--
4:13 PM655146.42-6.08n13.9--
3:13 PM655146.42-7.82n12.17--
12:13 PM654643.71-4.34n12.17--
11:13 AM624439.83-7.82nne10.43--
8:13 AM566343.58-5.21n8.69--
7:13 AM545638.66-5.21nnw9.56--
5:13 AM564534.96-6.08n7.82--
4:13 AM584134.43-5.21n7.82--
3:13 AM593934.08-4.34n10.43--
2:13 AM603632.97-7.82n12.17--
1:13 AM613533.15-6.08n10.43--
12:13 AM623433.31-4.34n8.69--
High: 73ºf @3:13 PM    Low: 60ºf @6:13 AM     Approx. Precipitation / Rain Total: in.
Time (PDT)Temp. (ºf)Humidity (%)Dew Point (ºf)Barometer (inHG)Wind Speed (mph)Wind DirectionWind Gust (mph)1hr. Precip / Rain Total (in.)Snow Depth
11:13 PM633131.89-5.21n7.82--
10:13 PM643031.94-5.21n6.95--
7:13 PM643334.32-4.34n8.69--
6:13 PM682934.55-5.21n8.69--
5:13 PM712735.33-5.21n10.43--
4:13 PM722332.17-6.08n11.3--
3:13 PM732333-6.08n11.3--
2:13 PM722837.1-5.21nne10.43--
1:13 PM712735.33-6.08n10.43--
12:13 PM722534.25-6.95n10.43--
11:13 AM732434.07-4.34nnw7.82--
10:13 AM712735.33-3.48nw6.95--
9:13 AM702734.48-3.48nnw6.95--
8:13 AM653133.63-2.61nw5.21--
7:13 AM623634.74-3.48nnw5.21--
6:13 AM603733.65-3.48nnw6.08--
4:13 AM613633.86-5.21n6.95--
3:13 AM623534.03-3.48n6.08--
2:13 AM623534.03-4.34n6.08--
1:13 AM633333.44-3.48n7.82--
12:13 AM642729.35-3.48n5.21--
High: 71ºf @4:13 PM    Low: 60ºf @4:13 AM     Approx. Precipitation / Rain Total: in.
Time (PDT)Temp. (ºf)Humidity (%)Dew Point (ºf)Barometer (inHG)Wind Speed (mph)Wind DirectionWind Gust (mph)1hr. Precip / Rain Total (in.)Snow Depth
11:13 PM653032.81-3.48nw6.08--
10:13 PM643535.8-2.61nw4.34--
8:13 PM653234.42-3.48n6.08--
7:13 PM653335.19-2.61nnw6.08--
6:13 PM673236.16-3.48n7.82--
5:13 PM702835.39-5.21n10.43--
4:13 PM712634.38-6.95nne10.43--
4:13 AM603230.06-3.48nnw6.08--
3:13 AM623231.8-4.34n6.08--
2:13 AM632930.24-3.48nnw5.21--
1:13 AM642527.48-3.48nw4.34--
12:13 AM642224.4-2.61nw5.21--
High: 72ºf @12:13 PM    Low: 59ºf @2:13 AM     Approx. Precipitation / Rain Total: in.
Time (PDT)Temp. (ºf)Humidity (%)Dew Point (ºf)Barometer (inHG)Wind Speed (mph)Wind DirectionWind Gust (mph)1hr. Precip / Rain Total (in.)Snow Depth
11:13 PM632829.38-1.74nw4.34--
10:13 PM632829.38-2.61nw3.48--
9:13 PM632829.38-2.61nnw6.95--
8:13 PM642830.24-3.48n5.21--
7:13 PM652831.1-2.61nnw6.95--
6:13 PM672630.98-4.34n7.82--
4:13 PM702633.53-6.08nne10.43--
3:13 PM712634.38-6.95nne12.17--
2:13 PM712432.38-6.95nne10.43--
12:13 PM722231.07-4.34nne9.56--
10:13 AM712129.1-5.21e10.43--
9:13 AM682227.74-3.48e7.82--
7:13 AM602725.93-2.61ne6.95--
5:13 AM603431.55-4.34n6.08--
4:13 AM593632.09-2.61nnw5.21--
2:13 AM593732.77-4.34n6.08--
1:13 AM603330.82-1.74nnw6.08--
12:13 AM613130.15-4.34nw6.08--
High: 64ºf @7:13 PM    Low: 61ºf @10:13 PM     Approx. Precipitation / Rain Total: in.
Time (PDT)Temp. (ºf)Humidity (%)Dew Point (ºf)Barometer (inHG)Wind Speed (mph)Wind DirectionWind Gust (mph)1hr. Precip / Rain Total (in.)Snow Depth
11:13 PM623030.21-3.48n5.21--
10:13 PM613130.15-1.74wnw4.34--
8:13 PM623030.21-6.08-7.82--
7:13 PM642931.11-4.34nne5.21--
Past Weather Disclaimer Note regarding "Approx. Precipitation / Rain Total"

Past Weather Nearby

More Local Information

Bookmark and Share

Grapevine weather and traffic updates by locals

Write your own Grapevine, California report, forecast, or traffic update:

Please note by clicking on "Post" you acknowledge that you have read the Terms of Service and the Grapevine, CA report and/or forecast you are posting is in compliance with such terms. Be respectful. An inappropriate Grapevine, CA report and/or forecast will be removed by a moderator.